Location: Cabeza de los Veneras
(40.2000°N, 5.2000°W)
Time: 19:38:00
(UTC+00:00)

BlueWalker 3 - Pass Details

Date: 25 June 2024
Orbit: 480 x 491 km, 53.2° (Epoch: 24 July)

Event Time Altitude Azimuth Distance (km) Brightness Sun altitude
Rises 00:07:05 0° 316° (NW) 2,540 6.2 -26.3°
Reaches altitude 10° 00:09:48 10° 336° (NNW) 1,658 5.4 -26.3°
Maximum altitude 00:12:23 17° 20° (NNE) 1,262 4.7 -26.4°
Drops below altitude 10° 00:14:58 10° 64° (ENE) 1,654 4.8 -26.4°
Enters shadow 00:15:54 - 73° (ENE) 1,932 5.1 -26.4°
